Simultaneous Nadir Overpasses (SNOs) Predictions

Prediction of SNOs between AQUA and NOAA-19 Satellite Orbit:

Table of predicted SNOs for the next 14.0 days since TLE Epoch: 12/28/2012
Index Date (AQUA) Time (AQUA) Lat,Lon (AQUA) SZA (AQUA ) Date (NOAA-19) Time (NOAA-19) Lat,Lon (NOAA-19) SZA (NOAA-19 ) Distance(km) Time Diff (sec)
1 12/29/2012 17:52:34 50.15, -74.22 74.10 12/29/2012 17:51:25 50.03, -74.83 73.87 45.65 69
2 12/29/2012 19:03:42 -49.83, -72.30 36.99 12/29/2012 19:04:46 -49.73, -71.90 37.30 30.25 64
3 12/31/2012 22:36:40 49.48,-145.01 73.29 12/31/2012 22:35:42 49.34,-145.63 73.03 47.88 58
4 12/31/2012 23:46:58 -53.43,-141.74 39.75 12/31/2012 23:48:11 -53.37,-141.25 40.11 33.20 73
5 01/03/2013 03:43:50 46.03, -23.56 145.77 01/03/2013 03:43:49 45.93, -22.98 145.47 46.03 1
6 01/03/2013 04:25:00 -74.52, 168.83 58.74 01/03/2013 04:26:13 -74.22, 170.57 59.09 61.65 73
7 01/05/2013 08:27:54 46.71, -94.37 145.25 01/05/2013 08:28:05 46.63, -93.81 144.94 43.53 11
8 01/05/2013 08:53:38 -46.07,-118.15 110.37 01/05/2013 08:54:34 -45.89,-119.13 110.67 78.86 56
9 01/07/2013 12:22:57 -46.01, 26.66 34.32 01/07/2013 12:21:48 -45.63, 27.45 34.42 73.91 69
10 01/07/2013 13:11:56 47.45,-165.14 144.63 01/07/2013 13:12:20 47.37,-164.61 144.32 40.86 24
11 01/07/2013 13:37:53 -46.10, 170.78 110.65 01/07/2013 13:39:02 -45.89, 169.76 110.97 82.54 69
12 01/09/2013 17:07:10 -46.05, -44.38 34.45 01/09/2013 17:06:11 -45.92, -43.55 34.73 65.82 59




NCC Satellite Simultaneous Nadir Overpasses (SNOs) Prediction Service
